[[{"header":{"parameterUnit":"m.s-1","parameterCategory":1,"la1":30.2991,"la2":30.254,"lo1":-89.0895,"lo2":-89.0444,"dy":0.0017,"dx":0.0017,"nx":28,"ny":28,"refTime":"2024-06-03T03:00:00:Z","depth":0,"parameterNumber":2,"parameterNumberName":"U-component_of_WINDS"},"data":[0,0,0,0,0,0,0,0,0,0,0,0,0,0,0,0,0,0,0,0,0,0,0,0,0,0,0,0,0,0,0,0,0,0,0,0,0,0,0,0,0,0,0,0,0,0,0,0,0,0,0,0,0,0,0,0,0,0,-1.1182,-1.1182,0,-1.1217,-1.1217,-1.1218,-1.1233,-1.1233,-1.1233,-1.1233,-1.1267,-1.1268,-1.1269,0,0,0,0,0,0,0,0,0,0,0,0,0,-1.1129,-1.1129,-1.1182,-1.1182,-1.1183,-1.1217,-1.1217,-1.1218,-1.1233,-1.1233,-1.1233,-1.1233,-1.1267,-1.1268,-1.1269,0,0,0,0,0,0,0,0,0,0,0,0,0,-1.1156,-1.113,-1.1182,-1.1194,-1.1196,-1.1217,-1.1217,-1.1218,-1.1233,-1.1233,-1.1233,-1.1233,-1.1267,-1.1268,-1.127,-1.128,0,0,-1.1274,-1.1275,0,0,0,0,0,0,0,0,-1.1155,-1.1158,-1.1192,-1.1194,-1.1195,-1.122,-1.1211,-1.1239,-1.1233,-1.1219,-1.1233,-1.1233,-1.1252,-1.1254,-1.1261,-1.1282,-1.1283,-1.1274,-1.1275,-1.1276,-1.1276,0,0,0,0,0,0,0,-1.1153,-1.1157,-1.1196,-1.1193,-1.1195,-1.1199,-1.1202,-1.1217,-1.1235,-1.122,-1.1221,-1.1225,-1.1253,-1.126,-1.1262,-1.1284,-1.1274,-1.1275,-1.1276,-1.1277,-1.1318,-1.1318,0,0,0,0,0,0,-1.1149,-1.1155,-1.1195,-1.1197,-1.1174,-1.12,-1.1204,-1.1212,-1.1235,-1.1239,-1.1225,-1.1226,-1.1257,-1.126,-1.1263,-1.1279,-1.1276,-1.1277,-1.1278,-1.1317,-1.1318,-1.1318,0,0,0,0,0,0,-1.1148,-1.1152,-1.1193,-1.1176,-1.1182,-1.1201,-1.121,-1.1213,-1.122,-1.1239,-1.1243,-1.1229,-1.1257,-1.1261,-1.1277,-1.128,-1.1278,-1.1279,-1.1317,-1.1317,-1.1318,-1.1308,0,0,0,0,0,0,-1.1146,-1.1152,-1.1156,-1.1176,-1.1183,-1.1206,-1.121,-1.1214,-1.1223,-1.1224,-1.1244,-1.1247,-1.1258,-1.1274,-1.1278,-1.1282,-1.128,-1.1317,-1.1317,-1.1318,-1.1308,-1.1308,-1.1308,0,0,0,0,0,-1.1144,-1.1151,-1.1156,-1.116,-1.1188,-1.1206,-1.1209,-1.1222,-1.1223,-1.1228,-1.124,-1.1246,-1.1279,-1.1276,-1.128,-1.1284,-1.1317,-1.1317,-1.1318,-1.1308,-1.1308,-1.1308,0,0,0,0,0,0,-1.1129,-1.1154,-1.1159,-1.1173,-1.1187,-1.1208,-1.1214,-1.1221,-1.1235,-1.1235,-1.125,-1.1254,-1.1269,-1.1278,-1.1274,-1.1297,-1.1299,-1.13,-1.129,-1.129,-1.129,-1.1287,-1.1281,0,0,0,0,0,-1.1128,-1.114,-1.1161,-1.1171,-1.1178,-1.1195,-1.1203,-1.1212,-1.1227,-1.1233,-1.1246,-1.126,-1.1274,-1.1283,-1.1296,-1.131,-1.1315,-1.1316,-1.1316,-1.1315,-1.1316,-1.1326,-1.1326,-1.1319,-1.1319,-1.1319,0,0,-1.1124,-1.1139,-1.1146,-1.1168,-1.118,-1.1193,-1.12,-1.1212,-1.1222,-1.1234,-1.125,-1.1261,-1.1278,-1.1293,-1.13,-1.1301,-1.132,-1.1316,-1.1316,-1.1317,-1.1326,-1.1327,-1.1328,-1.132,-1.132,-1.132,0,0,-1.1124,-1.1137,-1.1147,-1.116,-1.1178,-1.119,-1.1193,-1.1213,-1.1221,-1.1237,-1.1247,-1.1259,-1.1282,-1.1294,-1.1304,-1.1311,-1.1318,-1.1316,-1.1315,-1.1324,-1.1324,-1.1325,-1.1328,-1.1329,-1.1316,-1.1316,-1.1316,0,-1.1117,-1.1137,-1.1152,-1.1164,-1.1175,-1.1188,-1.1199,-1.121,-1.1232,-1.1239,-1.124,-1.1271,-1.1283,-1.1302,-1.1304,-1.1311,-1.1315,-1.1313,-1.1323,-1.1324,-1.1325,-1.1328,-1.1329,-1.1316,-1.1316,-1.1316,-1.1316,0,-1.1128,-1.1142,-1.1148,-1.117,-1.1181,-1.1193,-1.121,-1.1219,-1.1228,-1.124,-1.1257,-1.1272,-1.129,-1.1296,-1.1303,-1.1316,-1.1316,-1.132,-1.1322,-1.1325,-1.1328,-1.133,-1.1315,-1.1316,-1.1316,-1.1316,0,0,-1.1118,-1.115,-1.1152,-1.1163,-1.1185,-1.1196,-1.121,-1.1228,-1.1236,-1.1251,-1.1263,-1.1284,-1.1288,-1.1299,-1.1308,-1.1317,-1.1323,-1.132,-1.132,-1.132,-1.1339,-1.1336,-1.1337,-1.1328,-1.1328,-1.1329,-1.1338,0,-1.1121,-1.1146,-1.116,-1.1179,-1.1192,-1.1206,-1.1218,-1.1234,-1.1245,-1.1259,-1.1272,-1.1287,-1.1291,-1.1298,-1.1306,-1.132,-1.1327,-1.132,-1.1339,-1.134,-1.1334,-1.1339,-1.1335,-1.1343,-1.1339,-1.134,-1.134,0,-1.1128,-1.1144,-1.1164,-1.1188,-1.1194,-1.1204,-1.1223,-1.1235,-1.1254,-1.1262,-1.1275,-1.1286,-1.1301,-1.1302,-1.1324,-1.1319,-1.1328,-1.1336,-1.1337,-1.1339,-1.1339,-1.1341,-1.1346,-1.1347,-1.1342,-1.1342,-1.1342,0,-1.112,-1.1146,-1.1162,-1.1171,-1.1198,-1.1205,-1.1217,-1.1235,-1.1246,-1.1263,-1.127,-1.1288,-1.1298,-1.1312,-1.1327,-1.1327,-1.1348,-1.135,-1.1356,-1.1355,-1.1359,-1.1358,-1.1365,-1.1365,-1.1365,-1.1365,-1.1365,0,-1.1122,-1.1134,-1.1159,-1.1169,-1.1183,-1.12,-1.1214,-1.1227,-1.1244,-1.1256,-1.127,-1.1282,-1.1301,-1.1316,-1.1328,-1.1345,-1.1349,-1.1356,-1.1359,-1.1355,-1.1354,-1.1361,-1.1361,-1.1365,-1.1365,-1.1365,-1.1365,0,-1.1114,-1.1131,-1.115,-1.1175,-1.1181,-1.1191,-1.1212,-1.1223,-1.1236,-1.1253,-1.1257,-1.1278,-1.1296,-1.1314,-1.1337,-1.1346,-1.1363,-1.1366,-1.1356,-1.1358,-1.1363,-1.1362,-1.1374,-1.1377,-1.1374,-1.1374,-1.1374,0,-1.1114,-1.1124,-1.115,-1.116,-1.1172,-1.1187,-1.1199,-1.1217,-1.1229,-1.1252,-1.126,-1.1279,-1.1295,-1.1323,-1.1341,-1.136,-1.1364,-1.1367,-1.1367,-1.1363,-1.1365,-1.1364,-1.1366,-1.1367,-1.1367,-1.1366,-1.1366,0,-1.1113,-1.1121,-1.1138,-1.1157,-1.1171,-1.1187,-1.1204,-1.1212,-1.1233,-1.1245,-1.1265,-1.1277,-1.1303,-1.1322,-1.1343,-1.1355,-1.1365,-1.1367,-1.1369,-1.1364,-1.1358,-1.1362,-1.1356,-1.1366,-1.1366,-1.1366,-1.1366,-1.1366,-1.1109,-1.1119,-1.114,-1.1158,-1.1173,-1.1189,-1.12,-1.1216,-1.1232,-1.1255,-1.1265,-1.1284,-1.1304,-1.1334,-1.1346,-1.1362,-1.1364,-1.1367,-1.1368,-1.1369,-1.1368,-1.1356,-1.1366,-1.1366,-1.1366,-1.1366,-1.1366,0,-1.1109,-1.1123,-1.114,-1.1164,-1.1178,-1.1187,-1.1207,-1.1218,-1.1235,-1.1254,-1.127,-1.1293,-1.1312,-1.1332,-1.1353,-1.1362,-1.1367,-1.1367,-1.1366,-1.1369,-1.1365,-1.1361,-1.1362,-1.1362,-1.1362,-1.1362,-1.1362,-1.1362,-1.111,-1.1128,-1.114,-1.1165,-1.118,-1.12,-1.121,-1.1225,-1.124,-1.1265,-1.1282,-1.1295,-1.1314,-1.1337,-1.1355,-1.1361,-1.1368,-1.1366,-1.1373,-1.1369,-1.1369,-1.1369,-1.1366,-1.1368,-1.1368,-1.1376,-1.1376,-1.1376]},{"header":{"parameterUnit":"m.s-1","parameterCategory":1,"la1":30.2991,"la2":30.254,"lo1":-89.0895,"lo2":-89.0444,"dy":0.0017,"dx":0.0017,"nx":28,"ny":28,"refTime":"2024-06-03T03:00:00:Z","depth":0,"parameterNumber":3,"parameterNumberName":"V-component_of_WINDS"},"data":[0,0,0,0,0,0,0,0,0,0,0,0,0,0,0,0,0,0,0,0,0,0,0,0,0,0,0,0,0,0,0,0,0,0,0,0,0,0,0,0,0,0,0,0,0,0,0,0,0,0,0,0,0,0,0,0,0,0,5.0148,5.015,0,5.0299,5.0301,5.0302,5.0323,5.0322,5.0321,5.0319,5.0467,5.0473,5.0478,0,0,0,0,0,0,0,0,0,0,0,0,0,4.9873,4.9878,5.0148,5.015,5.0152,5.0299,5.0301,5.0303,5.0324,5.0322,5.032,5.0319,5.0466,5.0472,5.0478,0,0,0,0,0,0,0,0,0,0,0,0,0,5.0005,4.988,5.0148,5.018,5.0185,5.0298,5.0301,5.0303,5.0324,5.0322,5.032,5.0318,5.0464,5.0471,5.0479,5.0569,0,0,5.0503,5.0506,0,0,0,0,0,0,0,0,4.9997,5.0015,5.0173,5.0178,5.0183,5.029,5.0258,5.0392,5.0325,5.0271,5.0319,5.0317,5.041,5.0422,5.0455,5.0576,5.0582,5.0504,5.0508,5.0512,5.0514,0,0,0,0,0,0,0,4.9988,5.0008,5.0207,5.0176,5.0182,5.0185,5.0202,5.0284,5.035,5.0275,5.0277,5.0295,5.0412,5.0447,5.0458,5.0584,5.0503,5.051,5.0515,5.0518,5.0789,5.0791,0,0,0,0,0,0,4.9974,5.0001,5.0203,5.0212,5.0084,5.0192,5.021,5.0258,5.0349,5.0361,5.0297,5.0296,5.0435,5.0449,5.0463,5.0577,5.0512,5.0519,5.0524,5.0787,5.079,5.0792,0,0,0,0,0,0,4.9968,4.9992,5.0197,5.0107,5.0134,5.0199,5.0252,5.0262,5.0297,5.0365,5.0377,5.0321,5.0433,5.0452,5.0544,5.0582,5.0523,5.053,5.0784,5.0787,5.0791,5.0802,0,0,0,0,0,0,4.996,4.999,5.0025,5.0108,5.0138,5.0276,5.0255,5.0266,5.0311,5.0311,5.0391,5.0402,5.0433,5.0532,5.0551,5.0592,5.0536,5.078,5.0785,5.079,5.0799,5.0806,5.0812,0,0,0,0,0,4.995,5.0021,5.0027,5.0051,5.0185,5.0278,5.0295,5.0332,5.0314,5.0351,5.0395,5.0399,5.0574,5.0541,5.0563,5.0606,5.0778,5.0784,5.0789,5.0796,5.0805,5.0812,0,0,0,0,0,0,4.9938,5.0032,5.004,5.014,5.0201,5.0281,5.0328,5.0339,5.0405,5.0402,5.0442,5.046,5.0549,5.0587,5.0548,5.0699,5.0675,5.0685,5.0672,5.0681,5.0687,5.0677,5.0542,0,0,0,0,0,4.9948,5.0018,5.0095,5.0175,5.0206,5.0262,5.0303,5.0327,5.0391,5.0416,5.0467,5.0527,5.0596,5.064,5.0707,5.0804,5.0822,5.0845,5.0851,5.0856,5.0865,5.0921,5.0932,5.0811,5.081,5.081,0,0,4.9967,5.0027,5.0068,5.0175,5.0225,5.0295,5.0283,5.0357,5.0409,5.0426,5.0517,5.0556,5.0626,5.0721,5.0765,5.0755,5.0903,5.0863,5.0867,5.0873,5.0928,5.0939,5.0949,5.0814,5.0814,5.0813,0,0,5.0039,5.0091,5.0165,5.0217,5.0294,5.0331,5.0348,5.0428,5.0455,5.0547,5.0562,5.0623,5.074,5.079,5.0831,5.0924,5.0931,5.0944,5.0979,5.1033,5.1042,5.1051,5.1085,5.1097,5.0952,5.0952,5.0952,0,5.0053,5.0162,5.0201,5.0276,5.0323,5.0344,5.0419,5.0466,5.0559,5.059,5.0578,5.0727,5.0775,5.0883,5.0906,5.0938,5.0959,5.0935,5.1038,5.1047,5.1056,5.1089,5.1102,5.0953,5.0953,5.0953,5.0953,0,5.0176,5.0251,5.0301,5.0394,5.0446,5.052,5.057,5.0617,5.0636,5.0674,5.0767,5.0826,5.0907,5.0934,5.0951,5.1045,5.1036,5.103,5.1006,5.1068,5.11,5.1113,5.0955,5.0955,5.0954,5.0954,0,0,5.0244,5.0361,5.0379,5.0422,5.0509,5.0567,5.0642,5.0723,5.0764,5.0827,5.0891,5.0991,5.0987,5.1033,5.1056,5.1103,5.1175,5.1092,5.1094,5.1107,5.1283,5.1288,5.1302,5.118,5.1183,5.1185,5.1278,0,5.0328,5.0465,5.0504,5.0619,5.0689,5.0711,5.0776,5.0836,5.0873,5.0937,5.0977,5.1048,5.1036,5.1065,5.1112,5.1156,5.1211,5.115,5.124,5.1242,5.1223,5.1319,5.1324,5.1409,5.129,5.1293,5.1294,0,5.0443,5.0513,5.0636,5.0717,5.0747,5.0806,5.0884,5.0945,5.1013,5.1037,5.109,5.1109,5.1187,5.1159,5.1267,5.1225,5.1263,5.1291,5.1295,5.1305,5.1273,5.1333,5.1437,5.145,5.1314,5.1312,5.1311,0,5.0483,5.0607,5.0698,5.0734,5.0829,5.087,5.0912,5.0978,5.1025,5.1092,5.1123,5.1197,5.1238,5.1295,5.1334,5.131,5.1439,5.1414,5.1461,5.1461,5.1489,5.1487,5.1601,5.1511,5.1511,5.1511,5.151,0,5.0573,5.0648,5.0718,5.0773,5.0858,5.0901,5.0982,5.1024,5.1083,5.1147,5.1168,5.1227,5.1274,5.1339,5.1369,5.1455,5.1473,5.1494,5.1502,5.1493,5.1491,5.152,5.1516,5.1514,5.1513,5.1513,5.1512,0,5.0632,5.0682,5.0782,5.0865,5.0888,5.0947,5.1017,5.1071,5.111,5.119,5.1211,5.1271,5.1349,5.1393,5.149,5.151,5.1606,5.161,5.1584,5.1588,5.1634,5.1629,5.1772,5.1794,5.1688,5.1689,5.1689,0,5.0687,5.0746,5.0836,5.0882,5.0924,5.0996,5.1045,5.1089,5.1139,5.1222,5.1267,5.1346,5.1412,5.1535,5.1586,5.166,5.1667,5.1712,5.1678,5.1668,5.1669,5.1666,5.1673,5.1718,5.1719,5.1719,5.172,0,5.078,5.0802,5.0873,5.0953,5.1012,5.1076,5.1139,5.1175,5.1229,5.1284,5.1365,5.1416,5.1517,5.1595,5.1674,5.1715,5.1727,5.173,5.1746,5.1738,5.1722,5.1733,5.1602,5.1727,5.1726,5.1726,5.1725,5.1725,5.084,5.0894,5.0967,5.1045,5.1099,5.1158,5.1214,5.1261,5.133,5.1418,5.1438,5.1524,5.1591,5.1699,5.1742,5.1808,5.18,5.1822,5.1828,5.1833,5.1835,5.171,5.1822,5.1822,5.1822,5.1822,5.1822,0,5.0935,5.0984,5.1056,5.1146,5.1208,5.1216,5.1287,5.1338,5.1414,5.1477,5.1542,5.1636,5.1713,5.177,5.1849,5.1891,5.1899,5.191,5.1908,5.1918,5.1837,5.1817,5.1903,5.1903,5.1903,5.1903,5.1903,5.1903,5.0992,5.1085,5.1116,5.1235,5.1282,5.1369,5.1409,5.1464,5.1515,5.162,5.1685,5.1723,5.1784,5.1867,5.1938,5.1953,5.1981,5.1992,5.2008,5.1932,5.1923,5.1915,5.1896,5.1998,5.1998,5.2083,5.2084,5.2085]}]]